GW6041 Weather Reports


time (UTC)temp
C
wind
direction
speed
KPH
gust
KPH
rain 1hr
cm
rain 24hr
cm
rain mn
cm
humidity
%
barometer
mb
20260508082759 5 340 3.2 6.4 0.00 0.05 0.05 76 1024.2
20260508082257 5 309 6.4 6.4 0.00 0.05 0.05 76 1024.1
20260508081754 5 28 9.7 9.7 0.00 0.05 0.05 74 1024.0
20260508081251 5 93 3.2 6.4 0.05 0.05 0.05 75 1024.1
20260508080748 5 57 8.0 9.7 0.05 0.05 0.05 75 1024.2
20260508080246 4 78 6.4 11.3 0.00 0.03 0.03 78 1024.0
20260508075742 4 59 6.4 9.7 0.05 0.03 0.03 78 1024.1
20260508075239 4 109 4.8 17.7 0.05 0.03 0.03 78 1024.3
20260508074737 4 159 6.4 9.7 0.00 0.03 0.03 77 1024.0
20260508074234 4 141 12.9 17.7 0.00 0.03 0.03 78 1023.9
20260508073731 4 135 9.7 11.3 0.00 0.03 0.03 79 1023.9
20260508073229 4 129 8.0 12.9 0.00 0.03 0.03 79 1023.9
20260508072725 4 164 11.3 17.7 0.00 0.03 0.03 76 1023.9
20260508072222 5 148 6.4 17.7 0.00 0.03 0.03 74 1024.0
20260508071719 5 164 17.7 20.9 0.00 0.03 0.03 71 1023.8
20260508071217 5 136 8.0 14.5 0.00 0.03 0.03 66 1023.5
20260508070714 6 155 12.9 16.1 0.00 0.03 0.03 67 1023.2
20260508070213 6 136 9.7 17.7 0.00 0.03 0.03 62 1023.2
20260508065710 6 138 3.2 12.9 0.00 0.03 0.03 62 1023.2
20260508065208 6 222 0.0 6.4 0.00 0.03 0.03 66 1023.1
20260508064705 6 265 3.2 4.8 0.00 0.03 0.03 69 1023.1
20260508064203 6 155 3.2 4.8 0.00 0.03 0.03 64 1023.1
20260508063700 6 33 3.2 4.8 0.00 0.03 0.03 65 1023.1
20260508063158 5 103 3.2 4.8 0.00 0.03 0.03 67 1023.1
20260508062655 5 91 3.2 8.0 0.00 0.03 0.03 68 1023.0
20260508062152 5 105 3.2 9.7 0.00 0.03 0.03 68 1023.1
20260508061649 5 159 6.4 9.7 0.00 0.03 0.03 69 1022.8
20260508061147 5 131 6.4 8.0 0.00 0.03 0.03 71 1023.0
20260508060643 5 147 6.4 11.3 0.00 0.03 0.03 71 1022.8
20260508060141 4 149 12.9 14.5 0.00 0.03 0.03 73 1022.8
20260508055636 4 71 3.2 6.4 0.00 0.03 0.03 77 1023.0
20260508055133 4 75 6.4 6.4 0.00 0.03 0.03 77 1022.7
20260508054629 4 143 6.4 8.0 0.00 0.03 0.03 77 1022.8
20260508054127 4 56 3.2 8.0 0.00 0.03 0.03 78 1022.7
20260508053624 3 107 9.7 11.3 0.00 0.03 0.03 77 1022.7
20260508053122 3 104 6.4 12.9 0.00 0.03 0.03 80 1022.6
20260508052619 3 125 4.8 6.4 0.00 0.03 0.03 83 1022.7
20260508052116 3 94 4.8 9.7 0.00 0.03 0.03 84 1022.6
20260508051612 3 70 9.7 12.9 0.00 0.03 0.03 86 1022.6
20260508051107 3 66 8.0 11.3 0.00 0.03 0.03 88 1022.6
20260508050604 2 122 6.4 9.7 0.00 0.03 0.03 88 1022.6
20260508045557 3 78 6.4 6.4 0.00 0.03 0.03 87 1022.5
20260508045055 3 73 4.8 8.0 0.00 0.03 0.03 86 1022.4
20260508044552 3 71 8.0 8.0 0.00 0.03 0.03 88 1022.2
20260508044048 2 84 6.4 6.4 0.00 0.03 0.03 92 1022.4
20260508043545 2 83 4.8 8.0 0.00 0.03 0.03 91 1022.2
20260508043043 2 73 9.7 9.7 0.00 0.03 0.03 92 1022.2
20260508042539 2 57 4.8 6.4 0.00 0.03 0.03 93 1022.3
20260508042037 2 84 3.2 4.8 0.00 0.03 0.03 93 1022.3
20260508041533 1 72 4.8 6.4 0.00 0.03 0.03 93 1022.2
20260508041029 1 77 6.4 6.4 0.00 0.03 0.03 93 1022.3
20260508040526 1 72 6.4 6.4 0.00 0.03 0.03 93 1022.3
20260508040024 1 60 6.4 6.4 0.00 0.03 0.03 93 1022.2
20260508035521 1 71 4.8 6.4 0.00 0.03 0.03 93 1022.3
20260508035018 1 40 6.4 6.4 0.00 0.03 0.03 93 1022.1
20260508034515 1 71 6.4 6.4 0.00 0.03 0.03 93 1022.2
20260508034012 1 70 6.4 8.0 0.00 0.03 0.03 93 1022.0
20260508033510 1 78 6.4 8.0 0.00 0.03 0.03 93 1021.8
20260508033007 1 63 8.0 9.7 0.05 0.03 0.03 92 1022.0
20260508032504 1 54 8.0 9.7 0.05 0.03 0.03 92 1022.0
20260508032001 1 70 6.4 8.0 0.00 0.00 0.00 93 1022.0
20260508031459 1 98 4.8 6.4 0.00 0.00 0.00 93 1021.9
20260508030953 1 119 6.4 11.3 0.00 0.00 0.00 93 1021.9
20260508030451 1 77 9.7 9.7 0.00 0.00 0.00 93 1022.0
20260508025948 1 48 6.4 8.0 0.05 0.00 0.00 93 1022.0
20260508025444 0 41 6.4 11.3 0.00 0.00 0.00 92 1021.8
20260508024942 1 69 8.0 9.7 0.00 0.00 0.00 92 1021.9
20260508024438 1 70 9.7 9.7 0.00 0.00 0.00 92 1021.9
20260508023935 1 46 6.4 8.0 0.00 0.00 0.00 91 1021.8
20260508023432 0 50 8.0 9.7 0.00 0.00 0.00 91 1021.8
20260508022929 0 47 9.7 9.7 0.00 0.00 0.00 90 1021.8
20260508022424 0 52 9.7 9.7 0.00 0.00 0.00 88 1022.0
20260508021921 0 64 8.0 9.7 0.00 0.00 0.00 87 1021.8
20260508021418 0 56 4.8 6.4 0.00 0.00 0.00 87 1021.9
20260508020913 0 55 6.4 6.4 0.00 0.00 0.00 86 1021.4
20260508020412 0 66 9.7 11.3 0.00 0.00 0.00 85 1021.4
20260508015908 0 77 9.7 9.7 0.00 0.00 0.00 83 1021.3
20260508015406 0 75 11.3 12.9 0.00 0.00 0.00 84 1021.3
20260508014902 0 80 9.7 12.9 0.00 0.00 0.00 86 1021.2
20260508014400 0 61 11.3 12.9 0.00 0.00 0.00 86 1021.5
20260508013855 0 65 12.9 14.5 0.00 0.00 0.00 85 1021.3
20260508013351 0 69 8.0 9.7 0.00 0.00 0.00 85 1021.3
20260508012849 0 78 8.0 9.7 0.00 0.00 0.00 88 1021.1
20260508012346 0 88 4.8 8.0 0.00 0.00 0.00 88 1021.1
20260508011844 0 64 6.4 6.4 0.00 0.00 0.00 87 1021.1
20260508011342 0 79 8.0 11.3 0.00 0.00 0.00 88 1021.1
20260508010838 0 79 6.4 8.0 0.00 0.00 0.00 87 1021.0
20260508010336 0 74 6.4 14.5 0.00 0.00 0.00 84 1021.0
20260508005833 0 76 9.7 11.3 0.00 0.00 0.00 85 1020.9
20260508005329 0 83 9.7 9.7 0.00 0.00 0.00 84 1020.9
20260508004825 0 72 11.3 14.5 0.00 0.00 0.00 81 1020.9
20260508004322 0 77 11.3 12.9 0.00 0.00 0.00 82 1021.0
20260508003818 0 72 12.9 16.1 0.00 0.00 0.00 83 1020.9
20260508003316 0 73 9.7 9.7 0.00 0.00 0.00 83 1020.9
20260508002812 0 73 9.7 12.9 0.00 0.00 0.00 83 1020.8
20260508002309 0 57 9.7 9.7 0.00 0.00 0.00 85 1020.7
20260508001805 0 79 6.4 9.7 0.00 0.00 0.00 85 1020.7
20260508001301 0 43 8.0 8.0 0.00 0.00 0.00 84 1020.7
20260508000758 0 39 9.7 9.7 0.00 0.00 0.00 83 1020.4
20260508000257 0 76 9.7 9.7 0.00 0.00 0.00 82 1020.5
20260507235751 0 82 8.0 9.7 0.00 0.00 0.00 82 1020.6
20260507235249 0 43 8.0 9.7 0.00 0.00 0.00 83 1020.4
20260507234745 0 52 8.0 9.7 0.00 0.00 0.00 82 1020.4
20260507234242 0 95 9.7 9.7 0.00 0.00 0.00 82 1020.3
20260507233738 0 91 9.7 9.7 0.00 0.00 0.00 83 1020.3
20260507233237 0 76 9.7 14.5 0.00 0.00 0.00 84 1020.4
20260507232734 0 60 14.5 14.5 0.00 0.00 0.00 80 1020.2
20260507232230 0 44 9.7 9.7 0.00 0.00 0.00 79 1020.3
20260507231727 0 61 8.0 9.7 0.00 0.00 0.00 79 1020.2
20260507231224 0 84 3.2 9.7 0.00 0.00 0.00 78 1020.4
20260507230720 0 82 8.0 8.0 0.00 0.00 0.00 79 1020.1
20260507230218 0 69 9.7 11.3 0.00 0.00 0.00 77 1020.2
20260507225717 0 75 9.7 12.9 0.00 0.00 0.00 77 1020.2
20260507225214 0 80 9.7 12.9 0.00 0.00 0.00 78 1019.9
20260507224710 0 76 11.3 17.7 0.00 0.00 0.00 80 1020.0
20260507224207 0 62 14.5 16.1 0.00 0.00 0.00 80 1020.0
20260507223703 0 75 8.0 8.0 0.00 0.00 0.00 76 1019.9
20260507223200 1 59 12.9 12.9 0.00 0.00 0.00 74 1020.0
20260507222657 0 81 9.7 11.3 0.00 0.00 0.00 78 1020.0
20260507222153 0 78 8.0 11.3 0.00 0.00 0.00 76 1019.9
20260507221649 1 64 14.5 16.1 0.00 0.00 0.00 76 1019.8
20260507221146 1 71 14.5 14.5 0.00 0.00 0.00 74 1019.9
20260507220643 1 89 9.7 12.9 0.00 0.00 0.00 75 1019.7
20260507220141 0 85 9.7 9.7 0.00 0.00 0.00 79 1019.6
20260507215637 1 70 12.9 14.5 0.00 0.00 0.00 74 1019.5
20260507215135 1 74 11.3 14.5 0.00 0.00 0.00 77 1019.4
20260507214631 1 70 11.3 12.9 0.00 0.00 0.00 77 1019.5
20260507214128 0 80 11.3 14.5 0.00 0.00 0.00 79 1019.5
20260507213624 0 87 9.7 14.5 0.00 0.00 0.00 79 1019.5
20260507213122 1 69 12.9 14.5 0.00 0.00 0.00 76 1019.3
20260507212617 1 71 12.9 17.7 0.00 0.00 0.00 78 1019.4
20260507212114 1 66 14.5 14.5 0.00 0.00 0.00 76 1019.4
20260507211611 1 73 9.7 11.3 0.00 0.00 0.00 78 1019.5
20260507211107 1 86 9.7 9.7 0.00 0.00 0.00 77 1019.3
20260507210605 1 86 6.4 8.0 0.00 0.00 0.00 76 1019.3
20260507205558 2 72 9.7 11.3 0.00 0.00 0.00 74 1019.2
20260507205054 1 71 14.5 14.5 0.00 0.00 0.00 76 1019.1
20260507204550 2 66 11.3 14.5 0.00 0.00 0.00 73 1019.2
20260507204048 2 69 12.9 12.9 0.00 0.00 0.00 72 1019.1
20260507203546 2 74 11.3 12.9 0.00 0.00 0.00 72 1019.1
20260507203043 2 76 8.0 11.3 0.00 0.00 0.00 72 1018.9
20260507202538 2 66 9.7 11.3 0.00 0.00 0.00 71 1019.0
20260507202035 2 84 9.7 11.3 0.00 0.00 0.00 72 1019.0
20260507201531 2 99 9.7 11.3 0.00 0.00 0.00 74 1018.9
20260507201027 2 78 9.7 14.5 0.00 0.00 0.00 73 1018.9
20260507200522 2 87 8.0 9.7 0.00 0.00 0.00 73 1018.8
20260507200019 2 75 8.0 14.5 0.00 0.00 0.00 73 1018.7
20260507195516 2 81 11.3 12.9 0.00 0.00 0.00 74 1018.8
20260507195014 3 76 9.7 9.7 0.00 0.00 0.00 75 1018.4
20260507194510 3 73 9.7 11.3 0.00 0.00 0.00 76 1018.6
20260507194006 3 80 8.0 8.0 0.00 0.00 0.00 77 1018.8
20260507193503 3 82 11.3 14.5 0.00 0.00 0.00 77 1018.5
20260507193000 3 87 8.0 9.7 0.00 0.00 0.00 76 1018.4
20260507192455 3 94 9.7 14.5 0.00 0.00 0.00 74 1018.3
20260507191953 4 66 11.3 11.3 0.00 0.00 0.00 74 1018.4
20260507191449 4 71 11.3 14.5 0.00 0.00 0.00 74 1018.1
20260507190946 4 58 8.0 9.7 0.00 0.00 0.00 73 1018.4
20260507190443 5 56 9.7 9.7 0.00 0.00 0.00 72 1018.4
20260507185942 5 65 8.0 9.7 0.00 0.00 0.00 71 1018.2
20260507185439 5 57 8.0 9.7 0.00 0.00 0.00 71 1018.3
20260507184935 5 63 8.0 9.7 0.00 0.00 0.00 69 1018.3
20260507184434 5 33 6.4 8.0 0.00 0.00 0.00 69 1018.2
20260507183931 5 355 3.2 9.7 0.00 0.00 0.00 69 1018.1
20260507183427 5 40 6.4 9.7 0.00 0.00 0.00 69 1018.0
20260507182925 5 36 8.0 11.3 0.00 0.00 0.00 69 1018.1
20260507182421 6 34 8.0 12.9 0.00 0.00 0.00 70 1018.1
20260507181917 6 22 11.3 14.5 0.00 0.00 0.00 68 1018.0
20260507181413 6 38 4.8 8.0 0.00 0.00 0.00 70 1018.0
20260507180910 6 36 9.7 9.7 0.00 0.00 0.00 69 1018.0
20260507180407 6 350 6.4 12.9 0.00 0.00 0.00 68 1017.9
20260507175903 6 315 9.7 14.5 0.00 0.00 0.00 67 1017.9
20260507175400 6 313 9.7 17.7 0.00 0.00 0.00 68 1017.8
20260507174857 6 291 12.9 19.3 0.00 0.00 0.00 68 1017.6
20260507174354 6 279 14.5 17.7 0.00 0.00 0.00 69 1017.7
20260507173852 6 297 14.5 19.3 0.00 0.00 0.00 70 1017.7
20260507173349 7 281 14.5 16.1 0.00 0.00 0.00 69 1017.7
20260507172845 6 278 14.5 16.1 0.00 0.00 0.00 70 1017.5
20260507172342 6 274 16.1 17.7 0.00 0.00 0.00 69 1017.7
20260507171838 6 281 16.1 19.3 0.00 0.00 0.00 70 1017.6
20260507171335 6 297 14.5 19.3 0.00 0.00 0.00 70 1017.7
20260507170832 6 297 9.7 17.7 0.00 0.00 0.00 66 1017.5
20260507170328 6 291 9.7 20.9 0.00 0.00 0.00 67 1017.3
20260507165824 7 314 12.9 17.7 0.00 0.00 0.00 64 1017.4
20260507165320 7 323 6.4 6.4 0.00 0.00 0.00 59 1017.4
20260507164816 7 354 3.2 4.8 0.00 0.00 0.00 58 1017.4
20260507164314 7 322 1.6 3.2 0.00 0.00 0.00 60 1017.3
20260507163811 7 182 1.6 1.6 0.00 0.00 0.00 59 1017.5
20260507163309 7 351 3.2 6.4 0.00 0.00 0.00 57 1017.4
20260507162804 7 296 4.8 4.8 0.00 0.00 0.00 57 1017.0
20260507162300 7 285 6.4 6.4 0.00 0.00 0.00 56 1017.1
20260507161758 7 321 4.8 6.4 0.00 0.00 0.00 53 1017.2
20260507161254 7 325 3.2 4.8 0.00 0.00 0.00 53 1017.1
20260507160750 7 293 3.2 6.4 0.00 0.00 0.00 60 1017.0
20260507160246 6 318 3.2 6.4 0.00 0.00 0.00 60 1017.2
20260507155742 6 332 4.8 6.4 0.00 0.00 0.00 62 1017.2
20260507155238 6 315 6.4 8.0 0.00 0.00 0.00 61 1017.0
20260507154735 6 328 8.0 9.7 0.00 0.00 0.00 62 1017.0
20260507154233 6 311 8.0 9.7 0.00 0.00 0.00 61 1017.0
20260507153729 6 306 6.4 8.0 0.00 0.00 0.00 63 1016.9
20260507153226 6 316 8.0 8.0 0.00 0.00 0.00 63 1016.9
20260507152722 6 303 8.0 9.7 0.00 0.00 0.00 62 1017.0
20260507152219 7 320 8.0 9.7 0.00 0.00 0.00 60 1017.0
20260507151715 7 303 6.4 6.4 0.00 0.00 0.00 57 1017.1
20260507151211 7 92 4.8 8.0 0.00 0.00 0.00 58 1017.0
20260507150708 6 20 3.2 8.0 0.00 0.00 0.00 60 1016.9
20260507150205 6 22 3.2 6.4 0.00 0.00 0.00 62 1016.9
20260507145701 6 8 4.8 6.4 0.00 0.00 0.00 64 1017.2
20260507145158 5 315 6.4 9.7 0.00 0.00 0.00 66 1017.2
20260507144654 5 317 6.4 11.3 0.00 0.00 0.00 65 1017.1
20260507144153 6 292 14.5 16.1 0.00 0.00 0.00 64 1016.9
20260507143649 6 267 14.5 20.9 0.00 0.00 0.00 64 1016.9
20260507143146 6 99 3.2 14.5 0.00 0.00 0.00 65 1016.8
20260507142642 6 60 4.8 6.4 0.00 0.00 0.00 60 1016.9
20260507142139 6 320 4.8 8.0 0.00 0.00 0.00 59 1017.0
20260507141635 6 332 6.4 6.4 0.00 0.00 0.00 63 1016.8
20260507141132 6 335 3.2 6.4 0.00 0.00 0.00 62 1017.0
20260507140628 6 325 4.8 8.0 0.00 0.00 0.00 61 1016.7
20260507140126 6 283 6.4 6.4 0.00 0.00 0.00 62 1016.8
20260507135623 7 294 3.2 6.4 0.00 0.00 0.00 57 1016.6
20260507135120 7 247 3.2 6.4 0.00 0.00 0.00 61 1016.7
20260507134616 7 36 1.6 6.4 0.00 0.00 0.00 58 1016.6
20260507134112 6 274 3.2 4.8 0.00 0.00 0.00 62 1016.7
20260507133608 6 276 4.8 9.7 0.00 0.00 0.00 60 1016.5
20260507133106 6 144 11.3 14.5 0.00 0.00 0.00 60 1016.7
20260507132603 6 99 6.4 12.9 0.00 0.00 0.00 62 1016.4
20260507132059 6 100 6.4 12.9 0.00 0.00 0.00 61 1016.5
20260507131556 6 72 4.8 9.7 0.00 0.00 0.00 64 1016.6
20260507131054 6 137 4.8 12.9 0.00 0.00 0.00 63 1016.5
20260507130550 6 93 9.7 16.1 0.00 0.00 0.00 63 1016.6
20260507130048 6 59 1.6 14.5 0.00 0.00 0.00 65 1016.7
20260507125547 5 103 8.0 12.9 0.00 0.00 0.00 62 1016.6
20260507125044 5 129 6.4 17.7 0.00 0.00 0.00 62 1016.4
20260507124540 6 157 6.4 19.3 0.00 0.00 0.00 61 1016.3
20260507124038 5 150 12.9 20.9 0.00 0.00 0.00 63 1016.5
20260507123536 5 159 9.7 17.7 0.00 0.00 0.00 61 1016.3
20260507123032 6 155 9.7 14.5 0.00 0.00 0.00 62 1016.3
20260507122528 6 153 16.1 17.7 0.00 0.00 0.00 61 1016.3
20260507122024 6 176 25.7 30.6 0.00 0.00 0.00 62 1016.2
20260507121519 6 274 0.0 11.3 0.00 0.00 0.00 63 1016.1
20260507121015 6 150 6.4 6.4 0.00 0.00 0.00 68 1016.1
20260507120512 6 244 12.9 17.7 0.00 0.00 0.00 65 1016.0
20260507120009 6 274 17.7 20.9 0.00 0.00 0.00 67 1015.8
20260507115505 6 287 19.3 24.1 0.00 0.00 0.00 65 1015.8
20260507115001 6 285 14.5 17.7 0.00 0.00 0.00 65 1015.8
20260507114457 6 266 9.7 12.9 0.00 0.00 0.00 65 1015.8
20260507113955 6 263 0.0 4.8 0.00 0.00 0.00 62 1015.8
20260507113452 6 107 3.2 17.7 0.00 0.00 0.00 57 1015.6
20260507112949 6 163 11.3 14.5 0.00 0.00 0.00 58 1015.4
20260507112446 6 145 11.3 17.7 0.00 0.00 0.00 56 1015.5
20260507111943 6 165 11.3 22.5 0.00 0.00 0.00 56 1015.6
20260507111440 6 157 8.0 9.7 0.00 0.00 0.00 59 1015.3
20260507110936 6 286 3.2 8.0 0.00 0.00 0.00 62 1015.4
20260507110433 6 324 0.0 3.2 0.00 0.00 0.00 63 1015.3
20260507105929 6 312 4.8 9.7 0.00 0.00 0.00 67 1015.3
20260507105426 6 284 11.3 11.3 0.00 0.00 0.00 70 1015.2
20260507104923 6 277 4.8 14.5 0.00 0.00 0.00 72 1015.3
20260507104420 6 305 9.7 14.5 0.00 0.00 0.00 72 1015.2
20260507103915 6 287 9.7 16.1 0.00 0.00 0.00 73 1015.1
20260507103413 5 282 9.7 19.3 0.00 0.00 0.00 74 1015.2
20260507102909 6 278 12.9 17.7 0.00 0.00 0.00 71 1014.9
20260507102406 6 316 8.0 11.3 0.00 0.00 0.00 72 1015.0
20260507101902 6 280 12.9 17.7 0.00 0.00 0.00 71 1015.1
20260507101402 6 249 9.7 17.7 0.00 0.00 0.00 69 1014.9
20260507100859 6 288 12.9 17.7 0.00 0.00 0.00 70 1014.8
20260507100357 6 199 1.6 8.0 0.00 0.00 0.00 63 1014.9
20260507095855 5 275 9.7 16.1 0.00 0.00 0.00 74 1014.8
20260507095351 5 279 8.0 14.5 0.00 0.00 0.00 73 1014.7
20260507094849 5 304 8.0 17.7 0.00 0.00 0.00 75 1014.8
20260507094345 5 280 9.7 20.9 0.00 0.00 0.00 75 1014.8
20260507093842 5 291 12.9 19.3 0.00 0.00 0.00 71 1014.8
20260507093340 5 296 14.5 17.7 0.00 0.00 0.00 73 1014.6
20260507092838 6 279 8.0 12.9 0.00 0.00 0.00 66 1014.8
20260507092334 6 262 9.7 14.5 0.00 0.00 0.00 64 1014.7
20260507091830 6 157 3.2 14.5 0.00 0.00 0.00 56 1014.7
20260507091327 6 147 3.2 6.4 0.00 0.00 0.00 58 1014.5
20260507090823 6 152 8.0 17.7 0.00 0.00 0.00 54 1014.6
20260507090319 6 170 4.8 9.7 0.00 0.00 0.00 56 1014.5
20260507085816 6 207 3.2 9.7 0.00 0.00 0.00 56 1014.4
20260507085313 7 343 4.8 9.7 0.00 0.00 0.00 55 1014.2
20260507084811 6 309 3.2 4.8 0.00 0.00 0.00 60 1014.3
20260507084307 6 109 1.6 3.2 0.00 0.00 0.00 58 1014.2
20260507083805 6 351 3.2 4.8 0.00 0.00 0.00 56 1014.4
20260507083301 6 349 6.4 6.4 0.00 0.00 0.00 56 1014.1